Date String (YYYY-MM-DD hh:mm:ss) UTC,Instrument flags,Ambient pressure (hPa),Sample flow (lpm),Bypass flow (lpm),Sample temperature (°C),Ambient temperature (°C),ASC tube jacket temperature (°C),LED temperature (°C),Box temperature (°C),Sample RH (%),Span deviation,Mass concentration (μg/m³),Mass concentration (μg/m³),Mass concentration (μg/m³)
DateTimeUTC,F1_M11,P_M11,Q1_M11,Q2_M11,T1_M11,T2_M11,T3_M11,T4_M11,T5_M11,U1_M11,ZSPAN_M11,X0_M11,X2_M11,X1_M11
2023-05-30 02:00:00,,0827.8,4.99,0.00,29.5,28.1,00.0,37.7,31.2,24.3,0000.0,0010.02,0004.03,0003.03
2023-05-30 02:01:00,,0827.8,5.00,0.00,29.5,28.2,00.0,37.7,31.3,24.3,0000.0,0009.54,0003.97,0003.03
2023-05-30 02:02:00,,0827.8,5.01,0.00,29.5,28.2,00.0,37.8,31.3,24.5,0000.0,0009.67,0003.97,0003.04
2023-05-30 02:03:00,,0827.8,4.98,0.00,29.5,27.0,00.0,37.7,31.1,24.1,0000.0,0009.14,0003.96,0003.04
2023-05-30 02:04:00,,0827.8,5.01,0.00,29.5,25.7,00.0,37.6,31.0,24.1,0000.0,0009.18,0003.98,0003.05
2023-05-30 02:05:00,,0827.8,5.01,0.00,29.4,25.6,00.0,37.6,30.8,24.2,0000.0,0009.16,0003.96,0003.04
2023-05-30 02:06:00,,0827.8,5.00,0.00,29.3,25.8,00.0,37.6,30.8,24.3,0000.0,0009.01,0003.96,0003.04
2023-05-30 02:07:00,,0827.8,5.00,0.00,29.3,26.2,00.0,37.6,30.8,24.2,0000.0,0008.83,0003.96,0003.05
2023-05-30 02:08:00,,0827.9,4.99,0.00,29.3,26.5,00.0,37.6,30.9,24.1,0000.0,0009.05,0003.99,0003.06
2023-05-30 02:09:00,,0828.0,5.00,0.00,29.3,26.9,00.0,37.6,30.9,24.1,0000.0,0009.42,0003.97,0003.07
2023-05-30 02:10:00,,0828.1,5.00,0.00,29.3,27.1,00.0,37.6,31.0,24.0,0000.0,0009.77,0003.97,0003.08
2023-05-30 02:11:00,,0828.1,4.99,0.00,29.3,27.4,00.0,37.6,31.0,23.8,0000.0,0009.80,0003.94,0003.07
2023-05-30 02:12:00,,0828.1,5.00,0.00,29.4,27.6,00.0,37.7,31.1,23.9,0000.0,0010.48,0003.95,0003.07
2023-05-30 02:13:00,,0828.1,5.00,0.00,29.4,27.8,00.0,37.7,31.1,23.9,0000.0,0010.41,0003.91,0003.06
2023-05-30 02:14:00,,0828.1,5.00,0.00,29.4,27.9,00.0,37.7,31.2,23.9,0000.0,0010.60,0003.96,0003.05
2023-05-30 02:15:00,,0828.1,5.00,0.00,29.4,28.0,00.0,37.7,31.2,23.9,0000.0,0010.50,0003.94,0003.03
2023-05-30 02:16:00,,0828.1,5.01,0.00,29.5,28.1,00.0,37.7,31.2,24.1,0000.0,0010.78,0003.97,0003.04
2023-05-30 02:17:00,,0828.1,5.00,0.00,29.5,28.2,00.0,37.7,31.3,24.1,0000.0,0011.16,0004.01,0003.03
2023-05-30 02:18:00,,0828.0,4.98,0.00,29.5,27.7,00.0,37.7,31.2,24.1,0000.0,0012.18,0004.03,0003.03
2023-05-30 02:19:00,,0828.1,5.00,0.00,29.5,26.0,00.0,37.7,31.0,24.1,0000.0,0012.82,0004.01,0003.03
2023-05-30 02:20:00,,0828.0,5.01,0.00,29.4,25.4,00.0,37.6,30.9,24.0,0000.0,0012.51,0004.04,0003.01
2023-05-30 02:21:00,,0828.1,5.02,0.00,29.3,25.6,00.0,37.6,30.7,23.8,0000.0,0011.96,0004.00,0002.99
2023-05-30 02:22:00,,0828.1,5.00,0.00,29.3,25.9,00.0,37.6,30.7,23.6,0000.0,0012.15,0004.07,0003.02
2023-05-30 02:23:00,,0828.2,4.99,0.00,29.3,26.2,00.0,37.6,30.8,23.4,0000.0,0011.68,0004.13,0003.04
2023-05-30 02:24:00,,0828.2,4.99,0.00,29.3,26.6,00.0,37.6,30.8,23.3,0000.0,0011.59,0004.14,0003.04
2023-05-30 02:25:00,,0828.2,5.01,0.00,29.3,26.9,00.0,37.6,30.9,23.2,0000.0,0012.86,0004.13,0003.05
2023-05-30 02:26:00,,0828.2,5.01,0.00,29.3,27.1,00.0,37.6,30.9,23.3,0000.0,0012.93,0004.14,0003.06
2023-05-30 02:27:00,,0828.3,5.00,0.00,29.3,27.3,00.0,37.6,31.0,23.3,0000.0,0012.78,0004.14,0003.07
2023-05-30 02:28:00,,0828.3,4.99,0.00,29.3,27.6,00.0,37.6,31.0,23.1,0000.0,0011.99,0004.09,0003.06
2023-05-30 02:29:00,,0828.3,5.00,0.00,29.3,27.7,00.0,37.6,31.0,22.9,0000.0,0011.34,0004.11,0003.06
2023-05-30 02:30:00,,0828.3,5.01,0.00,29.4,27.8,00.0,37.6,31.1,22.9,0000.0,0010.36,0004.08,0003.04
2023-05-30 02:31:00,,0828.4,5.00,0.00,29.4,28.0,00.0,37.7,31.1,22.8,0000.0,0010.39,0004.02,0003.05
2023-05-30 02:32:00,,0828.4,5.00,0.00,29.4,28.1,00.0,37.7,31.2,22.7,0000.0,0010.47,0004.06,0003.06
2023-05-30 02:33:00,,0828.4,5.00,0.00,29.5,28.2,00.0,37.7,31.2,22.6,0000.0,0010.35,0004.04,0003.05
2023-05-30 02:34:00,,0828.4,5.00,0.00,29.5,28.2,00.0,37.7,31.2,22.4,0000.0,0010.14,0004.00,0003.04
2023-05-30 02:35:00,,0828.5,4.99,0.00,29.5,28.3,00.0,37.7,31.3,22.2,0000.0,0010.12,0004.02,0003.05
2023-05-30 02:36:00,,0828.5,4.99,0.00,29.5,27.9,00.0,37.7,31.3,22.2,0000.0,0009.06,0004.02,0003.04
2023-05-30 02:37:00,,0828.5,5.00,0.00,29.5,26.1,00.0,37.7,31.0,22.4,0000.0,0009.54,0004.03,0003.05
2023-05-30 02:38:00,,0828.5,5.01,0.00,29.4,25.3,00.0,37.6,30.9,22.2,0000.0,0009.55,0004.06,0003.07
2023-05-30 02:39:00,,0828.6,5.01,0.00,29.3,25.4,00.0,37.6,30.7,22.3,0000.0,0009.74,0004.10,0003.10
2023-05-30 02:40:00,,0828.6,5.00,0.00,29.3,25.7,00.0,37.6,30.7,22.2,0000.0,0009.91,0004.09,0003.11
2023-05-30 02:41:00,,0828.6,5.00,0.00,29.2,26.1,00.0,37.6,30.8,22.4,0000.0,0009.94,0004.09,0003.13
2023-05-30 02:42:00,,0828.6,5.00,0.00,29.2,26.4,00.0,37.6,30.8,22.5,0000.0,0010.09,0004.15,0003.13
2023-05-30 02:43:00,,0828.6,5.00,0.00,29.2,26.7,00.0,37.6,30.8,22.4,0000.0,0010.54,0004.16,0003.14
2023-05-30 02:44:00,,0828.6,4.99,0.00,29.2,27.0,00.0,37.6,30.9,22.3,0000.0,0010.60,0004.18,0003.15
2023-05-30 02:45:00,,0828.7,5.00,0.00,29.3,27.2,00.0,37.6,30.9,22.3,0000.0,0010.53,0004.18,0003.15
2023-05-30 02:46:00,,0828.6,5.01,0.00,29.3,27.4,00.0,37.6,31.0,22.3,0000.0,0010.55,0004.16,0003.16
2023-05-30 02:47:00,,0828.7,5.00,0.00,29.3,27.6,00.0,37.6,31.0,22.3,0000.0,0010.45,0004.18,0003.17
2023-05-30 02:48:00,,0828.7,5.00,0.00,29.3,27.8,00.0,37.6,31.0,22.3,0000.0,0010.03,0004.16,0003.16
2023-05-30 02:49:00,,0828.7,5.00,0.00,29.3,27.9,00.0,37.6,31.1,22.2,0000.0,0009.91,0004.13,0003.15
2023-05-30 02:50:00,,0828.7,4.99,0.00,29.4,28.0,00.0,37.7,31.1,22.1,0000.0,0009.96,0004.10,0003.14
2023-05-30 02:51:00,,0828.7,5.00,0.00,29.4,28.1,00.0,37.7,31.1,22.1,0000.0,0009.65,0004.06,0003.13
2023-05-30 02:52:00,,0828.7,5.00,0.00,29.4,28.1,00.0,37.7,31.2,22.0,0000.0,0009.69,0004.12,0003.13
2023-05-30 02:53:00,,0828.7,4.99,0.00,29.5,28.2,00.0,37.7,31.2,21.9,0000.0,0010.38,0004.10,0003.12
2023-05-30 02:54:00,,0828.7,4.99,0.00,29.5,28.3,00.0,37.7,31.2,21.9,0000.0,0010.01,0004.10,0003.11
2023-05-30 02:55:00,,0828.7,5.00,0.00,29.5,28.3,00.0,37.8,31.3,21.8,0000.0,0010.27,0004.05,0003.10
2023-05-30 02:56:00,,0828.7,5.01,0.00,29.6,28.2,00.0,37.8,31.3,21.8,0000.0,0010.37,0004.04,0003.08
2023-05-30 02:57:00,,0828.7,4.99,0.00,29.5,26.6,00.0,37.7,31.1,21.8,0000.0,0010.42,0004.07,0003.08
2023-05-30 02:58:00,,0828.7,5.01,0.00,29.5,25.3,00.0,37.6,30.9,21.9,0000.0,0010.45,0004.10,0003.07
2023-05-30 02:59:00,,0828.7,5.01,0.00,29.4,25.3,00.0,37.6,30.7,22.0,0000.0,0010.78,0004.07,0003.06
